Clarksburg, WV

12:56 AM EDT on April 26, 2017 (GMT -0400)
Benedum

Weather History for KCKB - May, 2014

Change the Weather History Date:

Saturday, May 17, 2014

  Actual Average Record
Temperature  
Mean Temperature 50 °F -  
Max Temperature 60 °F 74 °F 90 °F (1951)
Min Temperature 42 °F 47 °F 31 °F (1984)
Degree Days  
Heating Degree Days 16    
Moisture  
Dew Point 39 °F    
Average Humidity 71    
Maximum Humidity 90    
Minimum Humidity 40    
Precipitation  
Precipitation 0.00 in - - ()
Sea Level Pressure  
Sea Level Pressure 30.11 in    
Wind  
Wind Speed 8 mph (SW)    
Max Wind Speed 14 mph    
Max Gust Speed 23 mph    
Visibility 10 miles    
Events      
Averages and records for this station are not official NWS values.
T = Trace of Precipitation, MM = Missing Value Source: NWS Daily Summary

Daily Weather History Graph

Daily Weather History Graph

Search for Another Location

Airport or City:

Trip Planner

Search our weather history database for the weather conditions in past years. The results will help you decide how hot, cold, wet, or windy it might be!

Date:

Astronomy

May. 17, 2014 Rise Set
Actual Time 6:05 AM EDT 8:29 PM EDT
Civil Twilight 5:35 AM EDT 8:59 PM EDT
Nautical Twilight 4:57 AM EDT 9:37 PM EDT
Astronomical Twilight 4:16 AM EDT 10:19 PM EDT
Moon 11:28 PM EDT (5/17) 8:46 AM EDT (5/17)
Length of Visible Light 15h 24m
Length of Day
14h 23m
Waning Gibbous, 89% of the Moon is Illuminated
May 17
Waning Gibbous
May 21
Last Quarter
May 28
New
Jun 5
First Quarter
Jun 13
Full

Hourly Weather History & Observations

Time (EDT) Temp. Windchill Dew Point Humidity Pressure Visibility Wind Dir Wind Speed Gust Speed Precip Events Conditions
12:27 AM 46.9 °F - 44.1 °F 90% 30.05 in 10.0 mi SW 8.1 mph - N/A   Overcast
12:53 AM 46.9 °F - 44.1 °F 90% 30.04 in 10.0 mi SW 6.9 mph - N/A   Overcast
1:53 AM 46.9 °F - 44.1 °F 90% 30.04 in 10.0 mi South 4.6 mph - N/A   Overcast
2:15 AM 46.9 °F - 44.1 °F 90% 30.05 in 10.0 mi SW 6.9 mph - N/A   Overcast
2:53 AM 46.9 °F - 42.1 °F 83% 30.03 in 10.0 mi SW 8.1 mph - N/A   Overcast
3:21 AM 46.0 °F 42.5 °F 41.0 °F 83% 30.04 in 10.0 mi SSW 6.9 mph - N/A   Overcast
3:53 AM 45.0 °F 42.6 °F 39.9 °F 82% 30.03 in 10.0 mi SSW 4.6 mph - N/A   Overcast
4:53 AM 43.0 °F 39.5 °F 39.0 °F 86% 30.04 in 10.0 mi South 5.8 mph - N/A   Clear
5:53 AM 42.1 °F 37.7 °F 37.9 °F 85% 30.05 in 10.0 mi South 6.9 mph - N/A   Clear
6:53 AM 42.1 °F 39.2 °F 39.0 °F 89% 30.07 in 10.0 mi SSW 4.6 mph - N/A   Clear
7:39 AM 44.1 °F 40.8 °F 41.0 °F 89% 30.10 in 10.0 mi SW 5.8 mph - N/A   Mostly Cloudy
7:53 AM 45.0 °F 40.6 °F 41.0 °F 86% 30.10 in 10.0 mi SSW 8.1 mph - N/A   Overcast
8:53 AM 46.0 °F 41.9 °F 39.9 °F 79% 30.12 in 10.0 mi WSW 8.1 mph - N/A   Overcast
9:53 AM 48.0 °F - 39.0 °F 71% 30.13 in 10.0 mi West 13.8 mph 18.4 mph N/A   Mostly Cloudy
10:25 AM 48.0 °F - 37.9 °F 68% 30.13 in 10.0 mi SW 13.8 mph 23.0 mph N/A   Overcast
10:53 AM 48.9 °F - 37.9 °F 66% 30.13 in 10.0 mi WSW 11.5 mph - N/A   Overcast
11:53 AM 51.1 °F - 39.0 °F 63% 30.14 in 10.0 mi West 10.4 mph - N/A   Overcast
12:00 PM 50.0 °F - 37.9 °F 63% 30.15 in 10.0 mi WSW 12.7 mph - N/A   Overcast
12:53 PM 53.1 °F - 37.9 °F 57% 30.13 in 10.0 mi SW 12.7 mph 18.4 mph N/A   Overcast
1:53 PM 57.0 °F - 37.9 °F 49% 30.12 in 10.0 mi West 9.2 mph - N/A   Mostly Cloudy
2:53 PM 55.9 °F - 35.1 °F 45% 30.12 in 10.0 mi West 8.1 mph - 0.00 in   Mostly Cloudy
3:53 PM 57.9 °F - 36.0 °F 44% 30.11 in 10.0 mi West 10.4 mph 21.9 mph N/A   Scattered Clouds
4:53 PM 57.0 °F - 34.0 °F 42% 30.11 in 10.0 mi WSW 13.8 mph 18.4 mph N/A   Mostly Cloudy
5:53 PM 55.9 °F - 32.0 °F 40% 30.12 in 10.0 mi West 11.5 mph 18.4 mph N/A   Mostly Cloudy
6:53 PM 55.0 °F - 34.0 °F 45% 30.13 in 10.0 mi West 6.9 mph 16.1 mph N/A   Mostly Cloudy
7:53 PM 54.0 °F - 36.0 °F 51% 30.15 in 10.0 mi NW 9.2 mph - N/A   Overcast
8:53 PM 46.0 °F - 37.9 °F 73% 30.18 in 10.0 mi Calm Calm - N/A   Clear
10:53 PM 43.0 °F - 39.0 °F 86% 30.22 in 10.0 mi Calm Calm - N/A   Overcast
11:53 PM 42.1 °F - 37.9 °F 85% 30.22 in 10.0 mi Calm Calm - N/A   Overcast